Time,TemperatureF,DewpointF,PressureIn,WindDirection,WindDirectionDegrees,WindSpeedMPH,WindSpeedGustMPH,Humidity,HourlyPrecipIn,Conditions,Clouds,dailyrainin,SolarRadiationWatts/m^2,SoftwareType,DateUTC
2013-01-11 00:04:00,44.1,34.2,30.18,NW,304,1.3,3.5,68,0.00,OVC,,0.00,0.0,WeatherDisplay:10.37,2013-01-11 08:04:00,
2013-01-11 00:09:00,44.4,34.5,30.18,WNW,297,3.6,10.4,68,0.00,OVC,,0.00,0.0,WeatherDisplay:10.37,2013-01-11 08:09:00,
2013-01-11 00:14:00,44.7,34.0,30.18,North,10,5.8,10.4,66,0.00,OVC,,0.00,0.0,WeatherDisplay:10.37,2013-01-11 08:14:00,
2013-01-11 00:19:00,44.9,34.2,30.18,WNW,300,2.5,5.8,66,0.00,OVC,,0.00,0.0,WeatherDisplay:10.37,2013-01-11 08:19:00,
2013-01-11 00:24:00,45.0,34.3,30.18,NW,309,2.7,5.8,66,0.00,OVC,,0.00,0.0,WeatherDisplay:10.37,2013-01-11 08:24:00,
2013-01-11 00:29:00,44.9,34.6,30.18,WNW,300,4.2,11.5,67,0.00,OVC,,0.00,0.0,WeatherDisplay:10.37,2013-01-11 08:29:00,
2013-01-11 00:34:00,44.9,34.6,30.17,West,267,5.0,8.0,67,0.00,OVC,,0.00,0.0,WeatherDisplay:10.37,2013-01-11 08:34:00,
2013-01-11 00:39:00,44.9,34.2,30.17,West,264,7.9,11.5,66,0.00,OVC,,0.00,0.0,WeatherDisplay:10.37,2013-01-11 08:39:00,
2013-01-11 00:44:00,45.0,34.3,30.17,North,10,7.2,10.4,66,0.00,OVC,,0.00,0.0,WeatherDisplay:10.37,2013-01-11 08:44:00,
2013-01-11 00:49:00,45.1,34.4,30.17,WNW,295,6.7,10.4,66,0.00,OVC,,0.00,0.0,WeatherDisplay:10.37,2013-01-11 08:49:00,
2013-01-11 00:54:00,45.0,34.3,30.17,West,267,3.5,8.0,66,0.00,OVC,,0.00,0.0,WeatherDisplay:10.37,2013-01-11 08:54:00,
2013-01-11 00:59:00,45.0,34.3,30.17,WNW,296,2.4,4.6,66,0.00,OVC,,0.00,0.0,WeatherDisplay:10.37,2013-01-11 08:59:00,
2013-01-11 01:04:00,45.0,34.7,30.17,West,279,4.2,9.2,67,0.00,OVC,,0.00,0.0,WeatherDisplay:10.37,2013-01-11 09:04:00,
2013-01-11 01:09:00,45.0,34.7,30.17,North,10,2.4,5.8,67,0.00,OVC,,0.00,0.0,WeatherDisplay:10.37,2013-01-11 09:09:00,
2013-01-11 01:14:00,45.1,34.8,30.16,North,10,3.4,6.9,67,0.00,OVC,,0.00,0.0,WeatherDisplay:10.37,2013-01-11 09:14:00,
2013-01-11 01:19:00,45.1,34.4,30.17,West,277,3.0,5.8,66,0.00,OVC,,0.00,0.0,WeatherDisplay:10.37,2013-01-11 09:19:00,
2013-01-11 01:24:00,45.1,34.4,30.17,West,280,2.1,8.1,66,0.00,OVC,,0.00,0.0,WeatherDisplay:10.37,2013-01-11 09:24:00,
2013-01-11 01:29:00,45.1,34.4,30.17,NW,321,4.3,9.2,66,0.00,OVC,,0.00,0.0,WeatherDisplay:10.37,2013-01-11 09:29:00,
2013-01-11 01:34:00,45.2,34.1,30.17,NW,316,4.5,5.8,65,0.00,OVC,,0.00,0.0,WeatherDisplay:10.37,2013-01-11 09:34:00,
2013-01-11 01:39:00,45.3,34.6,30.17,West,275,3.0,9.2,66,0.00,OVC,,0.00,0.0,WeatherDisplay:10.37,2013-01-11 09:39:00,
2013-01-11 01:44:00,45.3,34.6,30.17,West,276,1.9,3.5,66,0.00,OVC,,0.00,0.0,WeatherDisplay:10.37,2013-01-11 09:44:00,
2013-01-11 01:49:00,45.2,34.9,30.17,NW,317,0.2,1.1,67,0.00,OVC,,0.00,0.0,WeatherDisplay:10.37,2013-01-11 09:49:00,
2013-01-11 01:54:00,45.1,34.8,30.17,NW,317,0.3,1.0,67,0.00,OVC,,0.00,0.0,WeatherDisplay:10.37,2013-01-11 09:54:00,
2013-01-11 01:59:00,45.0,34.7,30.17,NW,318,0.0,0.0,67,0.00,OVC,,0.00,0.0,WeatherDisplay:10.37,2013-01-11 09:59:00,
2013-01-11 02:04:00,44.8,34.9,30.17,NW,318,0.4,1.1,68,0.00,OVC,,0.00,0.0,WeatherDisplay:10.37,2013-01-11 10:04:00,
2013-01-11 02:09:00,44.6,34.7,30.17,NW,318,0.0,0.0,68,0.00,OVC,,0.00,0.0,WeatherDisplay:10.37,2013-01-11 10:09:00,
2013-01-11 02:14:00,44.3,34.8,30.18,NW,318,0.1,2.3,69,0.00,OVC,,0.00,0.0,WeatherDisplay:10.37,2013-01-11 10:14:00,
2013-01-11 02:19:00,44.1,34.6,30.18,NW,317,0.0,1.1,69,0.00,OVC,,0.00,0.0,WeatherDisplay:10.37,2013-01-11 10:19:00,
2013-01-11 02:24:00,43.9,34.7,30.18,NW,318,1.2,2.3,70,0.00,OVC,,0.00,0.0,WeatherDisplay:10.37,2013-01-11 10:24:00,
2013-01-11 02:29:00,43.7,34.9,30.18,NW,318,0.6,1.1,71,0.00,OVC,,0.00,0.0,WeatherDisplay:10.37,2013-01-11 10:29:00,
2013-01-11 02:34:00,43.6,34.5,30.18,NW,318,0.0,0.0,70,0.00,OVC,,0.00,0.0,WeatherDisplay:10.37,2013-01-11 10:34:00,
2013-01-11 02:39:00,43.7,34.2,30.17,NW,317,0.0,1.1,69,0.00,OVC,,0.00,0.0,WeatherDisplay:10.37,2013-01-11 10:39:00,
2013-01-11 02:44:00,43.9,34.7,30.18,NW,318,0.0,0.0,70,0.00,OVC,,0.00,0.0,WeatherDisplay:10.37,2013-01-11 10:44:00,
2013-01-11 02:49:00,44.0,35.2,30.18,NW,318,0.0,0.0,71,0.00,OVC,,0.00,0.0,WeatherDisplay:10.37,2013-01-11 10:49:00,
2013-01-11 02:54:00,43.9,34.7,30.18,North,10,1.0,2.0,70,0.00,OVC,,0.00,0.0,WeatherDisplay:10.37,2013-01-11 10:54:00,
2013-01-11 02:59:00,44.0,34.1,30.18,NNW,333,1.9,3.5,68,0.00,OVC,,0.00,0.0,WeatherDisplay:10.37,2013-01-11 10:59:00,
2013-01-11 03:04:00,44.2,33.9,30.18,NW,318,1.5,3.5,67,0.00,OVC,,0.00,0.0,WeatherDisplay:10.37,2013-01-11 11:04:00,
2013-01-11 03:09:00,44.3,33.7,30.18,NW,322,1.1,3.5,66,0.00,OVC,,0.00,0.0,WeatherDisplay:10.37,2013-01-11 11:09:00,
2013-01-11 03:14:00,44.4,33.7,30.17,NW,323,0.0,1.1,66,0.00,OVC,,0.00,0.0,WeatherDisplay:10.37,2013-01-11 11:14:00,
2013-01-11 03:19:00,44.3,33.7,30.18,NW,323,0.0,0.0,66,0.00,OVC,,0.00,0.0,WeatherDisplay:10.37,2013-01-11 11:19:00,
2013-01-11 03:24:00,44.3,32.5,30.18,NNW,348,2.7,6.0,63,0.00,OVC,,0.00,0.0,WeatherDisplay:10.37,2013-01-11 11:24:00,
2013-01-11 03:29:00,44.5,32.3,30.18,NNW,347,1.1,3.5,62,0.00,OVC,,0.00,0.0,WeatherDisplay:10.37,2013-01-11 11:29:00,
2013-01-11 03:35:00,44.5,32.3,30.17,NNW,328,1.5,3.5,62,0.00,OVC,,0.00,0.0,WeatherDisplay:10.37,2013-01-11 11:35:00,
2013-01-11 03:40:00,44.4,32.6,30.18,NNW,328,0.8,2.3,63,0.00,OVC,,0.00,0.0,WeatherDisplay:10.37,2013-01-11 11:40:00,
2013-01-11 03:45:00,44.3,32.5,30.18,NW,311,0.4,3.5,63,0.00,OVC,,0.00,0.0,WeatherDisplay:10.37,2013-01-11 11:45:00,
2013-01-11 03:50:00,44.2,32.8,30.18,NW,310,0.0,1.0,64,0.00,OVC,,0.00,0.0,WeatherDisplay:10.37,2013-01-11 11:50:00,
2013-01-11 03:55:00,44.2,32.7,30.18,NW,310,0.0,3.0,64,0.00,OVC,,0.00,0.0,WeatherDisplay:10.37,2013-01-11 11:55:00,
2013-01-11 04:00:00,44.0,32.2,30.18,NW,314,0.6,2.0,63,0.00,OVC,,0.00,0.0,WeatherDisplay:10.37,2013-01-11 12:00:00,
2013-01-11 04:05:00,44.0,31.4,30.18,NNE,28,1.2,1.2,61,0.00,OVC,,0.00,0.0,WeatherDisplay:10.37,2013-01-11 12:05:00,
2013-01-11 04:10:00,44.3,30.9,30.18,NNW,346,2.7,8.1,59,0.00,OVC,,0.00,0.0,WeatherDisplay:10.37,2013-01-11 12:10:00,
2013-01-11 04:15:00,44.7,30.8,30.17,North,358,8.0,13.0,58,0.00,OVC,,0.00,0.0,WeatherDisplay:10.37,2013-01-11 12:15:00,
2013-01-11 04:20:00,45.1,31.2,30.18,NNE,22,6.5,11.0,58,0.00,OVC,,0.00,0.0,WeatherDisplay:10.37,2013-01-11 12:20:00,
2013-01-11 04:25:00,45.2,31.3,30.17,North,5,2.6,6.9,58,0.00,OVC,,0.00,0.0,WeatherDisplay:10.37,2013-01-11 12:25:00,
2013-01-11 04:30:00,45.2,31.3,30.18,North,5,1.5,3.5,58,0.00,OVC,,0.00,0.0,WeatherDisplay:10.37,2013-01-11 12:30:00,
2013-01-11 04:35:00,45.1,31.2,30.17,North,353,1.0,5.0,58,0.00,OVC,,0.00,0.0,WeatherDisplay:10.37,2013-01-11 12:35:00,
2013-01-11 04:40:00,44.9,31.4,30.17,NW,305,2.1,3.5,59,0.00,OVC,,0.00,0.0,WeatherDisplay:10.37,2013-01-11 12:40:00,
2013-01-11 04:45:00,44.8,31.3,30.18,NW,307,0.0,2.0,59,0.00,OVC,,0.00,0.0,WeatherDisplay:10.37,2013-01-11 12:45:00,
2013-01-11 04:50:00,44.6,31.6,30.18,NW,305,1.0,2.3,60,0.00,OVC,,0.00,0.0,WeatherDisplay:10.37,2013-01-11 12:50:00,
2013-01-11 04:55:00,44.3,31.7,30.18,NW,305,0.0,1.1,61,0.00,OVC,,0.00,0.0,WeatherDisplay:10.37,2013-01-11 12:55:00,
2013-01-11 05:00:00,44.1,32.3,30.18,NW,305,0.0,0.0,63,0.00,OVC,,0.00,0.0,WeatherDisplay:10.37,2013-01-11 13:00:00,
2013-01-11 05:05:00,43.8,32.4,30.18,NW,305,1.0,3.0,64,0.00,OVC,,0.00,0.0,WeatherDisplay:10.37,2013-01-11 13:05:00,
2013-01-11 05:10:00,43.5,32.1,30.19,NW,304,1.3,3.5,64,0.00,OVC,,0.00,0.0,WeatherDisplay:10.37,2013-01-11 13:10:00,
2013-01-11 05:15:00,43.3,32.3,30.19,NW,305,0.4,2.3,65,0.00,OVC,,0.00,0.0,WeatherDisplay:10.37,2013-01-11 13:15:00,
2013-01-11 05:20:00,43.2,32.6,30.19,NW,305,0.0,0.0,66,0.00,OVC,,0.00,0.0,WeatherDisplay:10.37,2013-01-11 13:20:00,
2013-01-11 05:25:00,43.0,32.0,30.19,NW,305,1.7,2.0,65,0.00,OVC,,0.00,0.0,WeatherDisplay:10.37,2013-01-11 13:25:00,
2013-01-11 05:30:00,42.9,31.6,30.19,NW,305,1.6,3.5,64,0.00,OVC,,0.00,0.0,WeatherDisplay:10.37,2013-01-11 13:30:00,
2013-01-11 05:35:00,43.1,31.4,30.19,NW,321,2.0,3.5,63,0.00,OVC,,0.00,0.0,WeatherDisplay:10.37,2013-01-11 13:35:00,
2013-01-11 05:40:00,43.6,31.0,30.19,NNW,339,1.1,2.3,61,0.00,OVC,,0.00,0.0,WeatherDisplay:10.37,2013-01-11 13:40:00,
2013-01-11 05:45:00,44.1,31.5,30.19,North,349,1.3,3.5,61,0.00,OVC,,0.00,0.0,WeatherDisplay:10.37,2013-01-11 13:45:00,
2013-01-11 05:50:00,44.2,31.6,30.20,North,349,1.3,2.3,61,0.00,OVC,,0.00,0.0,WeatherDisplay:10.37,2013-01-11 13:50:00,
2013-01-11 05:55:00,44.2,31.6,30.20,NNW,337,0.6,2.3,61,0.00,OVC,,0.00,0.0,WeatherDisplay:10.37,2013-01-11 13:55:00,
2013-01-11 06:00:00,44.1,31.5,30.20,NNW,336,0.8,2.3,61,0.00,OVC,,0.00,0.0,WeatherDisplay:10.37,2013-01-11 14:00:00,
2013-01-11 06:05:00,44.0,31.8,30.20,NNW,337,0.7,2.3,62,0.00,OVC,,0.00,0.0,WeatherDisplay:10.37,2013-01-11 14:05:00,
2013-01-11 06:10:00,43.7,31.9,30.20,NNW,336,1.4,3.0,63,0.00,OVC,,0.00,0.0,WeatherDisplay:10.37,2013-01-11 14:10:00,
2013-01-11 06:15:00,43.6,31.8,30.20,NNW,337,0.9,2.3,63,0.00,OVC,,0.00,0.0,WeatherDisplay:10.37,2013-01-11 14:15:00,
2013-01-11 06:20:00,43.5,32.1,30.20,NNW,337,0.6,2.3,64,0.00,OVC,,0.00,0.0,WeatherDisplay:10.37,2013-01-11 14:20:00,
2013-01-11 06:25:00,43.3,32.3,30.20,NNW,337,0.0,0.0,65,0.00,OVC,,0.00,0.0,WeatherDisplay:10.37,2013-01-11 14:25:00,
2013-01-11 06:30:00,43.1,32.5,30.21,NNW,337,0.0,0.0,66,0.00,OVC,,0.00,0.0,WeatherDisplay:10.37,2013-01-11 14:30:00,
2013-01-11 06:35:00,42.9,32.7,30.21,NNW,337,0.0,0.0,67,0.00,OVC,,0.00,0.0,WeatherDisplay:10.37,2013-01-11 14:35:00,
2013-01-11 06:40:00,42.7,32.5,30.21,NNW,336,0.0,0.0,67,0.00,OVC,,0.00,0.0,WeatherDisplay:10.37,2013-01-11 14:40:00,
2013-01-11 06:45:00,42.7,33.2,30.21,NNW,337,0.0,0.0,69,0.00,OVC,,0.00,0.0,WeatherDisplay:10.37,2013-01-11 14:45:00,
2013-01-11 06:50:00,42.8,33.7,30.20,NNW,337,0.0,0.0,70,0.00,OVC,,0.00,0.0,WeatherDisplay:10.37,2013-01-11 14:50:00,
2013-01-11 06:55:00,42.8,34.0,30.21,NNW,337,0.0,0.0,71,0.00,OVC,,0.00,0.0,WeatherDisplay:10.37,2013-01-11 14:55:00,
2013-01-11 07:00:00,42.5,33.8,30.21,North,356,0.3,1.1,71,0.00,OVC,,0.00,0.0,WeatherDisplay:10.37,2013-01-11 15:00:00,
2013-01-11 07:05:00,42.3,33.9,30.22,North,356,0.0,0.0,72,0.00,OVC,,0.00,0.0,WeatherDisplay:10.37,2013-01-11 15:05:00,
2013-01-11 07:10:00,42.1,33.7,30.22,North,355,0.0,0.0,72,0.00,OVC,,0.00,0.0,WeatherDisplay:10.37,2013-01-11 15:10:00,
2013-01-11 07:15:00,41.9,34.9,30.22,North,356,0.0,0.0,76,0.00,OVC,,0.00,0.0,WeatherDisplay:10.37,2013-01-11 15:15:00,
2013-01-11 07:20:00,41.7,34.0,30.21,North,356,0.0,0.0,74,0.00,OVC,,0.00,0.0,WeatherDisplay:10.37,2013-01-11 15:20:00,
2013-01-11 07:25:00,41.6,33.9,30.21,North,356,0.0,0.0,74,0.00,OVC,,0.00,5.0,WeatherDisplay:10.37,2013-01-11 15:25:00,
2013-01-11 07:30:00,41.4,33.7,30.22,North,356,0.0,0.0,74,0.00,OVC,,0.00,11.0,WeatherDisplay:10.37,2013-01-11 15:30:00,
2013-01-11 07:35:00,41.3,34.0,30.22,North,356,0.0,0.0,75,0.00,OVC,,0.00,19.0,WeatherDisplay:10.37,2013-01-11 15:35:00,
2013-01-11 07:40:00,41.3,34.3,30.23,North,356,0.0,0.0,76,0.00,OVC,,0.00,28.0,WeatherDisplay:10.37,2013-01-11 15:40:00,
2013-01-11 07:45:00,41.4,34.7,30.23,North,356,0.2,2.3,77,0.00,OVC,,0.00,37.0,WeatherDisplay:10.37,2013-01-11 15:45:00,
2013-01-11 07:50:00,41.5,35.2,30.23,North,355,0.0,0.0,78,0.00,OVC,,0.00,35.0,WeatherDisplay:10.37,2013-01-11 15:50:00,
2013-01-11 07:55:00,41.8,35.4,30.23,North,355,0.0,0.0,78,0.00,OVC,,0.00,47.0,WeatherDisplay:10.37,2013-01-11 15:55:00,
2013-01-11 08:00:00,42.1,35.7,30.23,North,356,0.4,1.0,78,0.00,OVC,,0.00,91.0,WeatherDisplay:10.37,2013-01-11 16:00:00,
2013-01-11 08:05:00,42.5,36.1,30.23,North,356,0.0,0.0,78,0.00,OVC,,0.00,118.0,WeatherDisplay:10.37,2013-01-11 16:05:00,
2013-01-11 08:10:00,43.0,36.9,30.23,North,356,0.0,0.0,79,0.00,OVC,,0.00,144.0,WeatherDisplay:10.37,2013-01-11 16:10:00,
2013-01-11 08:15:00,44.5,39.3,30.23,North,356,1.2,2.3,82,0.00,CLR,,0.00,165.0,WeatherDisplay:10.37,2013-01-11 16:15:00,
2013-01-11 08:20:00,45.8,40.3,30.24,North,355,0.0,1.1,81,0.00,CLR,,0.00,185.0,WeatherDisplay:10.37,2013-01-11 16:20:00,
2013-01-11 08:25:00,47.0,40.2,30.23,North,356,0.0,1.1,77,0.00,CLR,,0.00,206.0,WeatherDisplay:10.37,2013-01-11 16:25:00,
2013-01-11 08:30:00,48.0,39.4,30.23,North,356,1.3,2.3,72,0.00,CLR,,0.00,102.0,WeatherDisplay:10.37,2013-01-11 16:30:00,
2013-01-11 08:35:00,48.3,38.6,30.23,North,356,0.0,0.0,69,0.00,CLR,,0.00,91.0,WeatherDisplay:10.37,2013-01-11 16:35:00,
2013-01-11 08:40:00,48.3,37.8,30.24,North,357,0.0,0.0,67,0.00,CLR,,0.00,90.0,WeatherDisplay:10.37,2013-01-11 16:40:00,
2013-01-11 08:45:00,48.0,37.2,30.24,North,357,0.0,0.0,66,0.00,CLR,,0.00,86.0,WeatherDisplay:10.37,2013-01-11 16:45:00,
2013-01-11 08:50:00,47.7,36.5,30.24,North,356,0.0,0.0,65,0.00,CLR,,0.00,84.0,WeatherDisplay:10.37,2013-01-11 16:50:00,
2013-01-11 08:55:00,47.5,36.3,30.24,North,356,0.0,0.0,65,0.00,CLR,,0.00,84.0,WeatherDisplay:10.37,2013-01-11 16:55:00,
2013-01-11 09:00:00,47.4,36.6,30.24,North,356,0.0,0.0,66,0.00,CLR,,0.00,86.0,WeatherDisplay:10.37,2013-01-11 17:00:00,
2013-01-11 09:05:00,47.2,36.0,30.24,North,356,0.0,0.0,65,0.00,CLR,,0.00,88.0,WeatherDisplay:10.37,2013-01-11 17:05:00,
2013-01-11 09:10:00,46.9,36.1,30.24,North,5,0.0,0.0,66,0.00,CLR,,0.00,98.0,WeatherDisplay:10.37,2013-01-11 17:10:00,
2013-01-11 09:15:00,46.8,36.4,30.24,ENE,75,1.2,3.0,67,0.00,CLR,,0.00,111.0,WeatherDisplay:10.37,2013-01-11 17:15:00,
2013-01-11 09:20:00,46.8,36.8,30.24,East,79,1.4,3.5,68,0.00,CLR,,0.00,120.0,WeatherDisplay:10.37,2013-01-11 17:20:00,
2013-01-11 09:25:00,46.7,36.3,30.24,East,88,1.2,3.5,67,0.00,CLR,,0.00,127.0,WeatherDisplay:10.37,2013-01-11 17:25:00,
2013-01-11 09:30:00,46.7,36.7,30.23,ESE,104,1.3,3.0,68,0.00,CLR,,0.00,142.0,WeatherDisplay:10.37,2013-01-11 17:30:00,
2013-01-11 09:35:00,46.6,36.6,30.23,ESE,116,1.8,3.5,68,0.00,CLR,,0.00,156.0,WeatherDisplay:10.37,2013-01-11 17:35:00,
2013-01-11 09:40:00,46.7,37.4,30.24,ESE,117,1.6,3.5,70,0.00,CLR,,0.00,160.0,WeatherDisplay:10.37,2013-01-11 17:40:00,
2013-01-11 09:45:00,46.8,37.2,30.24,SE,144,1.9,3.5,69,0.00,CLR,,0.00,186.0,WeatherDisplay:10.37,2013-01-11 17:45:00,
2013-01-11 09:50:00,46.8,36.4,30.24,SE,144,1.6,3.5,67,0.00,CLR,,0.00,195.0,WeatherDisplay:10.37,2013-01-11 17:50:00,
2013-01-11 09:55:00,47.0,37.0,30.24,SSE,154,2.3,3.5,68,0.00,CLR,,0.00,188.0,WeatherDisplay:10.37,2013-01-11 17:55:00,
2013-01-11 10:00:00,47.1,37.1,30.24,SSE,154,2.4,3.5,68,0.00,CLR,,0.00,188.0,WeatherDisplay:10.37,2013-01-11 18:00:00,
2013-01-11 10:05:00,47.1,36.7,30.24,SSE,154,1.8,3.5,67,0.00,CLR,,0.00,193.0,WeatherDisplay:10.37,2013-01-11 18:05:00,
2013-01-11 10:10:00,47.0,36.6,30.24,SSE,167,2.3,3.5,67,0.00,FEW,,0.00,211.0,WeatherDisplay:10.37,2013-01-11 18:10:00,
2013-01-11 10:15:00,47.1,36.7,30.24,SSE,167,0.8,3.5,67,0.00,FEW,,0.00,211.0,WeatherDisplay:10.37,2013-01-11 18:15:00,
2013-01-11 10:20:00,47.4,37.4,30.24,SSE,167,1.1,2.3,68,0.00,CLR,,0.00,197.0,WeatherDisplay:10.37,2013-01-11 18:20:00,
2013-01-11 10:25:00,47.9,37.8,30.24,SSE,167,1.4,3.5,68,0.00,FEW,,0.00,218.0,WeatherDisplay:10.37,2013-01-11 18:25:00,
2013-01-11 10:30:00,48.4,38.7,30.24,SSE,167,1.7,3.5,69,0.00,CLR,,0.00,290.0,WeatherDisplay:10.37,2013-01-11 18:30:00,
2013-01-11 10:36:00,48.8,37.6,30.24,SSE,167,1.3,3.5,65,0.00,CLR,,0.00,200.0,WeatherDisplay:10.37,2013-01-11 18:36:00,
2013-01-11 10:40:00,49.1,37.8,30.23,SSE,167,1.9,3.5,65,0.00,FEW,,0.00,262.0,WeatherDisplay:10.37,2013-01-11 18:40:00,
2013-01-11 10:46:00,49.0,36.9,30.23,SSE,167,1.1,3.5,63,0.00,SCT,,0.00,209.0,WeatherDisplay:10.37,2013-01-11 18:46:00,
2013-01-11 10:51:00,49.1,37.0,30.23,SSE,168,0.2,2.3,63,0.00,SCT,,0.00,225.0,WeatherDisplay:10.37,2013-01-11 18:51:00,
2013-01-11 10:56:00,49.2,37.1,30.23,SSE,168,0.7,1.0,63,0.00,SCT,,0.00,225.0,WeatherDisplay:10.37,2013-01-11 18:56:00,
2013-01-11 11:01:00,49.4,37.3,30.22,SSE,167,0.1,2.3,63,0.00,SCT,,0.00,265.0,WeatherDisplay:10.37,2013-01-11 19:01:00,
2013-01-11 11:06:00,49.6,37.1,30.22,SSE,168,0.3,1.1,62,0.00,SCT,,0.00,241.0,WeatherDisplay:10.37,2013-01-11 19:06:00,
2013-01-11 11:11:00,49.4,36.1,30.22,SSW,206,0.2,1.1,60,0.00,SCT,,0.00,272.0,WeatherDisplay:10.37,2013-01-11 19:11:00,
2013-01-11 11:16:00,49.3,35.6,30.21,SSW,206,2.1,3.5,59,0.00,SCT,,0.00,322.0,WeatherDisplay:10.37,2013-01-11 19:16:00,
2013-01-11 11:21:00,49.2,35.0,30.21,WNW,289,3.0,4.6,58,0.00,FEW,,0.00,287.0,WeatherDisplay:10.37,2013-01-11 19:21:00,
2013-01-11 11:26:00,49.1,34.5,30.20,West,275,3.4,6.9,57,0.00,SCT,,0.00,227.0,WeatherDisplay:10.37,2013-01-11 19:26:00,
2013-01-11 11:31:00,49.0,34.4,30.20,North,359,2.4,3.5,57,0.00,FEW,,0.00,439.0,WeatherDisplay:10.37,2013-01-11 19:31:00,
2013-01-11 11:36:00,49.1,34.9,30.20,NNW,344,3.0,4.0,58,0.00,CLR,,0.00,360.0,WeatherDisplay:10.37,2013-01-11 19:36:00,
2013-01-11 11:41:00,49.2,34.6,30.20,NNW,335,1.7,2.3,57,0.00,CLR,,0.00,341.0,WeatherDisplay:10.37,2013-01-11 19:41:00,
2013-01-11 11:46:00,49.4,34.8,30.20,North,10,3.7,4.6,57,0.00,CLR,,0.00,330.0,WeatherDisplay:10.37,2013-01-11 19:46:00,
2013-01-11 11:51:00,49.4,34.3,30.19,WNW,297,3.6,5.8,56,0.00,FEW,,0.00,330.0,WeatherDisplay:10.37,2013-01-11 19:51:00,
2013-01-11 11:56:00,49.5,34.9,30.19,WSW,255,1.6,3.5,57,0.00,CLR,,0.00,367.0,WeatherDisplay:10.37,2013-01-11 19:56:00,
2013-01-11 12:01:00,49.9,34.8,30.19,West,264,5.6,9.2,56,0.00,CLR,,0.00,350.0,WeatherDisplay:10.37,2013-01-11 20:01:00,
2013-01-11 12:06:00,49.9,33.9,30.19,West,272,4.1,6.9,54,0.00,FEW,,0.00,438.0,WeatherDisplay:10.37,2013-01-11 20:06:00,
2013-01-11 12:11:00,50.0,34.0,30.18,West,261,3.9,5.8,54,0.00,CLR,,0.00,545.0,WeatherDisplay:10.37,2013-01-11 20:11:00,
2013-01-11 12:16:00,50.3,35.2,30.18,WNW,291,2.9,4.6,56,0.00,CLR,,0.00,543.0,WeatherDisplay:10.37,2013-01-11 20:16:00,
2013-01-11 12:21:00,50.2,34.6,30.18,WSW,251,4.2,9.2,55,0.00,CLR,,0.00,329.0,WeatherDisplay:10.37,2013-01-11 20:21:00,
2013-01-11 12:26:00,50.2,35.5,30.18,WSW,248,2.5,3.5,57,0.00,CLR,,0.00,336.0,WeatherDisplay:10.37,2013-01-11 20:26:00,
2013-01-11 12:31:00,50.5,35.8,30.17,WSW,248,4.8,6.9,57,0.00,FEW,,0.00,387.0,WeatherDisplay:10.37,2013-01-11 20:31:00,
2013-01-11 12:36:00,50.6,35.9,30.17,WNW,302,2.4,4.0,57,0.00,CLR,,0.00,612.0,WeatherDisplay:10.37,2013-01-11 20:36:00,
2013-01-11 12:41:00,50.9,37.1,30.17,NNW,334,3.9,7.0,59,0.00,CLR,,0.00,531.0,WeatherDisplay:10.37,2013-01-11 20:41:00,
2013-01-11 12:46:00,51.1,36.8,30.16,North,10,4.7,8.1,58,0.00,CLR,,0.00,283.0,WeatherDisplay:10.37,2013-01-11 20:46:00,
2013-01-11 12:51:00,50.9,37.5,30.16,North,10,8.8,12.7,60,0.00,CLR,,0.00,346.0,WeatherDisplay:10.37,2013-01-11 20:51:00,
2013-01-11 12:56:00,50.6,37.6,30.16,WNW,285,4.9,10.0,61,0.00,FEW,,0.00,299.0,WeatherDisplay:10.37,2013-01-11 20:56:00,
2013-01-11 13:01:00,50.7,38.1,30.15,WNW,294,5.4,9.2,62,0.00,SCT,,0.00,253.0,WeatherDisplay:10.37,2013-01-11 21:01:00,
2013-01-11 13:06:00,50.4,39.1,30.15,West,279,7.1,10.4,65,0.00,SCT,,0.00,272.0,WeatherDisplay:10.37,2013-01-11 21:06:00,
2013-01-11 13:11:00,50.3,39.4,30.16,North,10,3.2,5.8,66,0.00,SCT,,0.00,332.0,WeatherDisplay:10.37,2013-01-11 21:11:00,
2013-01-11 13:16:00,50.4,39.9,30.15,North,10,5.6,9.2,67,0.00,SCT,,0.00,234.0,WeatherDisplay:10.37,2013-01-11 21:16:00,
2013-01-11 13:21:00,50.3,40.1,30.15,North,10,7.8,12.7,68,0.00,SCT,,0.00,297.0,WeatherDisplay:10.37,2013-01-11 21:21:00,
2013-01-11 13:26:00,50.3,40.1,30.15,WNW,290,10.3,11.5,68,0.00,SCT,,0.00,529.0,WeatherDisplay:10.37,2013-01-11 21:26:00,
2013-01-11 13:31:00,50.3,40.5,30.15,North,10,11.8,17.3,69,0.00,CLR,,0.00,533.0,WeatherDisplay:10.37,2013-01-11 21:31:00,
2013-01-11 13:36:00,50.5,40.7,30.15,North,10,6.2,12.7,69,0.00,CLR,,0.00,308.0,WeatherDisplay:10.37,2013-01-11 21:36:00,
2013-01-11 13:41:00,50.5,40.7,30.14,WSW,247,12.0,12.7,69,0.00,FEW,,0.00,394.0,WeatherDisplay:10.37,2013-01-11 21:41:00,
2013-01-11 13:46:00,50.5,40.3,30.14,West,262,10.7,16.1,68,0.00,SCT,,0.00,445.0,WeatherDisplay:10.37,2013-01-11 21:46:00,
2013-01-11 13:51:00,50.7,40.5,30.14,North,10,11.1,15.0,68,0.00,CLR,,0.00,425.0,WeatherDisplay:10.37,2013-01-11 21:51:00,
2013-01-11 13:56:00,51.0,40.8,30.14,North,10,8.2,16.0,68,0.00,CLR,,0.00,457.0,WeatherDisplay:10.37,2013-01-11 21:56:00,
2013-01-11 14:01:00,51.0,40.8,30.14,North,10,10.3,18.0,68,0.00,CLR,,0.00,443.0,WeatherDisplay:10.37,2013-01-11 22:01:00,
2013-01-11 14:06:00,50.7,40.9,30.14,West,262,10.4,13.8,69,0.00,CLR,,0.00,429.0,WeatherDisplay:10.37,2013-01-11 22:06:00,
2013-01-11 14:11:00,50.7,40.9,30.14,WNW,294,7.6,11.5,69,0.00,CLR,,0.00,441.0,WeatherDisplay:10.37,2013-01-11 22:11:00,
2013-01-11 14:16:00,50.8,41.4,30.13,NW,308,6.0,10.4,70,0.00,CLR,,0.00,424.0,WeatherDisplay:10.37,2013-01-11 22:16:00,
2013-01-11 14:21:00,51.1,41.3,30.13,West,263,9.7,12.7,69,0.00,CLR,,0.00,424.0,WeatherDisplay:10.37,2013-01-11 22:21:00,
2013-01-11 14:26:00,51.4,41.6,30.14,SW,216,7.4,18.4,69,0.00,CLR,,0.00,439.0,WeatherDisplay:10.37,2013-01-11 22:26:00,
2013-01-11 14:31:00,51.2,41.4,30.14,North,10,12.7,19.0,69,0.00,CLR,,0.00,392.0,WeatherDisplay:10.37,2013-01-11 22:31:00,
2013-01-11 14:36:00,50.8,41.4,30.13,North,10,11.9,15.0,70,0.00,CLR,,0.00,353.0,WeatherDisplay:10.37,2013-01-11 22:36:00,
2013-01-11 14:41:00,50.5,41.8,30.13,West,265,11.2,16.1,72,0.00,CLR,,0.00,378.0,WeatherDisplay:10.37,2013-01-11 22:41:00,
2013-01-11 14:46:00,50.5,41.8,30.13,North,10,13.3,13.8,72,0.00,CLR,,0.00,359.0,WeatherDisplay:10.37,2013-01-11 22:46:00,
2013-01-11 14:51:00,50.3,41.6,30.13,West,269,11.2,16.1,72,0.00,CLR,,0.00,120.0,WeatherDisplay:10.37,2013-01-11 22:51:00,
2013-01-11 14:56:00,50.3,42.0,30.13,North,10,11.6,20.7,73,0.00,FEW,,0.00,299.0,WeatherDisplay:10.37,2013-01-11 22:56:00,
2013-01-11 15:01:00,50.2,41.9,30.13,WNW,289,11.2,17.3,73,0.00,SCT,,0.00,292.0,WeatherDisplay:10.37,2013-01-11 23:01:00,
2013-01-11 15:06:00,50.2,42.2,30.13,West,271,10.3,18.4,74,0.00,SCT,,0.00,171.0,WeatherDisplay:10.37,2013-01-11 23:06:00,
2013-01-11 15:11:00,50.3,42.0,30.13,West,261,5.1,17.3,73,0.00,SCT,,0.00,95.0,WeatherDisplay:10.37,2013-01-11 23:11:00,
2013-01-11 15:16:00,50.5,42.2,30.12,North,10,7.2,11.5,73,0.00,SCT,,0.00,241.0,WeatherDisplay:10.37,2013-01-11 23:16:00,
2013-01-11 15:21:00,50.4,42.1,30.12,West,267,7.3,9.2,73,0.00,SCT,,0.00,229.0,WeatherDisplay:10.37,2013-01-11 23:21:00,
2013-01-11 15:26:00,50.4,42.1,30.12,West,275,10.9,15.0,73,0.00,SCT,,0.00,216.0,WeatherDisplay:10.37,2013-01-11 23:26:00,
2013-01-11 15:31:00,50.1,42.1,30.12,NNW,333,9.2,15.0,74,0.00,SCT,,0.00,202.0,WeatherDisplay:10.37,2013-01-11 23:31:00,
2013-01-11 15:36:00,50.1,42.1,30.13,WSW,240,11.6,20.7,74,0.00,SCT,,0.00,197.0,WeatherDisplay:10.37,2013-01-11 23:36:00,
2013-01-11 15:41:00,49.8,42.2,30.12,North,10,12.0,19.6,75,0.00,SCT,,0.00,167.0,WeatherDisplay:10.37,2013-01-11 23:41:00,
2013-01-11 15:46:00,49.7,41.7,30.12,West,275,8.9,12.0,74,0.00,SCT,,0.00,142.0,WeatherDisplay:10.37,2013-01-11 23:46:00,
2013-01-11 15:52:00,49.7,42.1,30.12,North,10,13.6,13.6,75,0.00,SCT,,0.00,156.0,WeatherDisplay:10.37,2013-01-11 23:52:00,
2013-01-11 15:57:00,49.5,41.6,30.12,North,10,10.6,17.3,74,0.00,SCT,,0.00,151.0,WeatherDisplay:10.37,2013-01-11 23:57:00,
2013-01-11 16:02:00,49.4,41.8,30.12,West,264,12.8,18.0,75,0.00,SCT,,0.00,128.0,WeatherDisplay:10.37,2013-01-12 00:02:00,
2013-01-11 16:07:00,49.4,42.1,30.12,West,270,11.0,13.8,76,0.00,SCT,,0.00,111.0,WeatherDisplay:10.37,2013-01-12 00:07:00,
2013-01-11 16:12:00,49.3,42.1,30.12,North,10,12.6,14.0,76,0.00,BKN,,0.00,90.0,WeatherDisplay:10.37,2013-01-12 00:12:00,
2013-01-11 16:17:00,49.3,42.1,30.12,WNW,282,12.5,16.1,76,0.00,BKN,,0.00,88.0,WeatherDisplay:10.37,2013-01-12 00:17:00,
2013-01-11 16:22:00,49.3,42.1,30.12,NW,305,9.6,15.0,76,0.00,BKN,,0.00,23.0,WeatherDisplay:10.37,2013-01-12 00:22:00,
2013-01-11 16:27:00,49.2,42.0,30.11,North,10,9.6,13.8,76,0.00,BKN,,0.00,32.0,WeatherDisplay:10.37,2013-01-12 00:27:00,
2013-01-11 16:32:00,49.1,42.2,30.11,WNW,285,6.9,10.4,77,0.00,BKN,,0.00,21.0,WeatherDisplay:10.37,2013-01-12 00:32:00,
2013-01-11 16:37:00,49.0,42.1,30.11,North,10,8.4,13.0,77,0.00,BKN,,0.00,21.0,WeatherDisplay:10.37,2013-01-12 00:37:00,
2013-01-11 16:42:00,48.9,42.0,30.11,WNW,294,10.9,16.1,77,0.00,BKN,,0.00,26.0,WeatherDisplay:10.37,2013-01-12 00:42:00,
2013-01-11 16:47:00,48.9,42.0,30.11,West,275,9.8,15.0,77,0.00,BKN,,0.00,16.0,WeatherDisplay:10.37,2013-01-12 00:47:00,
2013-01-11 16:52:00,48.8,41.9,30.11,WNW,284,8.5,12.7,77,0.00,BKN,,0.00,14.0,WeatherDisplay:10.37,2013-01-12 00:52:00,
2013-01-11 16:57:00,48.8,41.9,30.11,WNW,293,8.8,15.0,77,0.00,OVC,,0.00,11.0,WeatherDisplay:10.37,2013-01-12 00:57:00,
2013-01-11 17:02:00,48.7,41.8,30.11,WNW,300,3.9,6.9,77,0.00,OVC,,0.00,9.0,WeatherDisplay:10.37,2013-01-12 01:02:00,
2013-01-11 17:07:00,48.7,41.8,30.11,NW,316,4.8,6.9,77,0.00,OVC,,0.00,7.0,WeatherDisplay:10.37,2013-01-12 01:07:00,
2013-01-11 17:12:00,48.6,42.0,30.11,West,279,6.0,11.0,78,0.00,OVC,,0.00,5.0,WeatherDisplay:10.37,2013-01-12 01:12:00,
2013-01-11 17:17:00,48.5,42.0,30.11,West,260,5.1,9.2,78,0.00,OVC,,0.00,0.0,WeatherDisplay:10.37,2013-01-12 01:17:00,
2013-01-11 17:22:00,48.5,42.0,30.11,North,10,5.1,10.4,78,0.00,OVC,,0.00,0.0,WeatherDisplay:10.37,2013-01-12 01:22:00,
2013-01-11 17:27:00,48.4,41.9,30.11,WNW,283,3.4,7.0,78,0.00,OVC,,0.00,0.0,WeatherDisplay:10.37,2013-01-12 01:27:00,
2013-01-11 17:32:00,48.4,41.9,30.11,West,281,5.1,9.2,78,0.00,OVC,,0.00,0.0,WeatherDisplay:10.37,2013-01-12 01:32:00,
2013-01-11 17:37:00,48.3,41.8,30.11,North,10,7.4,11.5,78,0.00,OVC,,0.00,0.0,WeatherDisplay:10.37,2013-01-12 01:37:00,
2013-01-11 17:42:00,48.3,41.8,30.11,North,10,6.5,12.7,78,0.00,OVC,,0.00,0.0,WeatherDisplay:10.37,2013-01-12 01:42:00,
2013-01-11 17:47:00,48.2,41.7,30.12,NW,308,3.9,6.9,78,0.00,OVC,,0.00,0.0,WeatherDisplay:10.37,2013-01-12 01:47:00,
2013-01-11 17:52:00,48.2,41.7,30.11,North,10,6.6,12.7,78,0.00,OVC,,0.00,0.0,WeatherDisplay:10.37,2013-01-12 01:52:00,
2013-01-11 17:57:00,48.1,41.6,30.11,West,269,3.4,5.0,78,0.00,OVC,,0.00,0.0,WeatherDisplay:10.37,2013-01-12 01:57:00,
2013-01-11 18:02:00,48.1,41.6,30.12,WNW,286,8.0,11.5,78,0.00,OVC,,0.00,0.0,WeatherDisplay:10.37,2013-01-12 02:02:00,
2013-01-11 18:07:00,48.0,41.5,30.12,WNW,288,7.7,11.5,78,0.00,OVC,,0.00,0.0,WeatherDisplay:10.37,2013-01-12 02:07:00,
2013-01-11 18:12:00,47.9,41.4,30.11,WNW,294,4.2,6.9,78,0.00,OVC,,0.00,0.0,WeatherDisplay:10.37,2013-01-12 02:12:00,
2013-01-11 18:17:00,47.9,41.4,30.11,West,264,4.6,9.2,78,0.00,OVC,,0.00,0.0,WeatherDisplay:10.37,2013-01-12 02:17:00,
2013-01-11 18:22:00,47.8,41.3,30.11,WNW,296,4.6,10.4,78,0.00,OVC,,0.00,0.0,WeatherDisplay:10.37,2013-01-12 02:22:00,
2013-01-11 18:27:00,47.7,41.5,30.11,West,273,6.3,10.4,79,0.00,OVC,,0.00,0.0,WeatherDisplay:10.37,2013-01-12 02:27:00,
2013-01-11 18:32:00,47.7,41.5,30.11,NW,306,5.6,11.5,79,0.00,OVC,,0.00,0.0,WeatherDisplay:10.37,2013-01-12 02:32:00,
2013-01-11 18:37:00,47.6,41.4,30.11,WNW,285,5.3,9.2,79,0.00,OVC,,0.00,0.0,WeatherDisplay:10.37,2013-01-12 02:37:00,
2013-01-11 18:42:00,47.6,41.4,30.11,NW,309,5.4,11.5,79,0.00,OVC,,0.00,0.0,WeatherDisplay:10.37,2013-01-12 02:42:00,
2013-01-11 18:47:00,47.5,41.3,30.11,West,275,8.3,11.5,79,0.00,OVC,,0.00,0.0,WeatherDisplay:10.37,2013-01-12 02:47:00,
2013-01-11 18:52:00,47.4,41.5,30.11,West,262,5.2,9.0,80,0.00,OVC,,0.00,0.0,WeatherDisplay:10.37,2013-01-12 02:52:00,
2013-01-11 18:57:00,47.4,41.5,30.11,NNW,327,3.2,6.9,80,0.00,OVC,,0.00,0.0,WeatherDisplay:10.37,2013-01-12 02:57:00,
2013-01-11 19:02:00,47.4,41.5,30.11,West,274,2.9,4.6,80,0.00,OVC,,0.00,0.0,WeatherDisplay:10.37,2013-01-12 03:02:00,
2013-01-11 19:07:00,47.4,41.5,30.11,West,271,4.0,5.8,80,0.00,OVC,,0.00,0.0,WeatherDisplay:10.37,2013-01-12 03:07:00,
2013-01-11 19:12:00,47.3,41.4,30.11,WNW,285,1.9,5.0,80,0.00,OVC,,0.00,0.0,WeatherDisplay:10.37,2013-01-12 03:12:00,
2013-01-11 19:17:00,47.2,41.7,30.11,WNW,300,1.8,5.8,81,0.00,OVC,,0.00,0.0,WeatherDisplay:10.37,2013-01-12 03:17:00,
2013-01-11 19:22:00,47.2,41.3,30.11,WNW,302,1.8,3.5,80,0.00,OVC,,0.00,0.0,WeatherDisplay:10.37,2013-01-12 03:22:00,
2013-01-11 19:27:00,47.1,41.2,30.11,West,275,4.0,6.9,80,0.00,OVC,,0.00,0.0,WeatherDisplay:10.37,2013-01-12 03:27:00,
2013-01-11 19:32:00,47.1,41.2,30.11,West,278,4.8,5.8,80,0.00,OVC,,0.00,0.0,WeatherDisplay:10.37,2013-01-12 03:32:00,
2013-01-11 19:37:00,47.1,41.2,30.11,WNW,285,2.7,4.6,80,0.00,OVC,,0.00,0.0,WeatherDisplay:10.37,2013-01-12 03:37:00,
2013-01-11 19:42:00,47.1,41.2,30.11,North,352,0.0,2.3,80,0.00,OVC,,0.00,0.0,WeatherDisplay:10.37,2013-01-12 03:42:00,
2013-01-11 19:47:00,47.0,41.1,30.11,North,352,0.2,2.0,80,0.00,OVC,,0.00,0.0,WeatherDisplay:10.37,2013-01-12 03:47:00,
2013-01-11 19:52:00,47.0,41.5,30.11,NW,311,0.0,0.0,81,0.00,OVC,,0.00,0.0,WeatherDisplay:10.37,2013-01-12 03:52:00,
2013-01-11 19:57:00,46.9,41.1,30.11,NW,309,0.5,3.0,80,0.00,OVC,,0.00,0.0,WeatherDisplay:10.37,2013-01-12 03:57:00,
2013-01-11 20:02:00,46.8,41.0,30.11,NW,311,0.0,1.1,80,0.00,OVC,,0.00,0.0,WeatherDisplay:10.37,2013-01-12 04:02:00,
2013-01-11 20:07:00,46.7,41.2,30.12,NW,311,0.0,0.0,81,0.00,OVC,,0.00,0.0,WeatherDisplay:10.37,2013-01-12 04:07:00,
2013-01-11 20:12:00,46.7,41.2,30.12,NW,311,0.0,0.0,81,0.00,OVC,,0.00,0.0,WeatherDisplay:10.37,2013-01-12 04:12:00,
2013-01-11 20:17:00,46.8,41.3,30.12,NW,311,0.0,0.0,81,0.00,OVC,,0.00,0.0,WeatherDisplay:10.37,2013-01-12 04:17:00,
2013-01-11 20:22:00,46.8,41.3,30.12,NW,311,0.0,0.0,81,0.00,OVC,,0.00,0.0,WeatherDisplay:10.37,2013-01-12 04:22:00,
2013-01-11 20:27:00,46.7,41.2,30.12,NW,310,0.0,2.3,81,0.00,OVC,,0.00,0.0,WeatherDisplay:10.37,2013-01-12 04:27:00,
2013-01-11 20:32:00,46.7,41.2,30.12,NW,310,0.1,2.3,81,0.00,OVC,,0.00,0.0,WeatherDisplay:10.37,2013-01-12 04:32:00,
2013-01-11 20:37:00,46.6,40.8,30.12,NNE,23,2.0,2.3,80,0.00,OVC,,0.00,0.0,WeatherDisplay:10.37,2013-01-12 04:37:00,
2013-01-11 20:42:00,46.7,40.2,30.12,NNW,334,1.2,3.5,78,0.00,OVC,,0.00,0.0,WeatherDisplay:10.37,2013-01-12 04:42:00,
2013-01-11 20:47:00,46.8,40.3,30.12,WNW,295,0.5,2.3,78,0.00,OVC,,0.00,0.0,WeatherDisplay:10.37,2013-01-12 04:47:00,
2013-01-11 20:52:00,46.9,40.4,30.13,NNE,23,2.1,3.5,78,0.00,OVC,,0.00,0.0,WeatherDisplay:10.37,2013-01-12 04:52:00,
2013-01-11 20:58:00,47.0,40.2,30.13,NW,321,3.3,11.5,77,0.00,OVC,,0.00,0.0,WeatherDisplay:10.37,2013-01-12 04:58:00,
2013-01-11 21:00:00,47.1,39.9,30.13,NNW,338,2.0,12.0,76,0.00,OVC,,0.00,0.0,WeatherDisplay:10.37,2013-01-12 05:00:00,
2013-01-11 21:01:00,47.1,40.3,30.13,NNW,345,2.3,3.5,77,0.00,OVC,,0.00,0.0,WeatherDisplay:10.37,2013-01-12 05:01:00,
2013-01-11 21:03:00,47.1,39.9,30.13,North,349,1.8,3.5,76,0.00,OVC,,0.00,0.0,WeatherDisplay:10.37,2013-01-12 05:03:00,
2013-01-11 21:08:00,47.1,40.3,30.13,NNW,339,1.7,3.5,77,0.00,OVC,,0.00,0.0,WeatherDisplay:10.37,2013-01-12 05:08:00,
2013-01-11 21:13:00,47.0,40.8,30.13,ENE,67,2.3,3.5,79,0.00,OVC,,0.00,0.0,WeatherDisplay:10.37,2013-01-12 05:13:00,
2013-01-11 21:18:00,46.8,41.0,30.13,NE,42,0.0,1.1,80,0.00,OVC,,0.00,0.0,WeatherDisplay:10.37,2013-01-12 05:18:00,
2013-01-11 21:23:00,46.7,40.9,30.13,NE,42,0.0,0.0,80,0.00,OVC,,0.00,0.0,WeatherDisplay:10.37,2013-01-12 05:23:00,
2013-01-11 21:28:00,46.5,40.7,30.13,NE,42,0.0,0.0,80,0.00,OVC,,0.00,0.0,WeatherDisplay:10.37,2013-01-12 05:28:00,
2013-01-11 21:33:00,46.3,40.8,30.13,NE,50,0.4,1.0,81,0.00,OVC,,0.00,0.0,WeatherDisplay:10.37,2013-01-12 05:33:00,
2013-01-11 21:38:00,46.1,40.9,30.14,NE,50,0.7,1.1,82,0.00,OVC,,0.00,0.0,WeatherDisplay:10.37,2013-01-12 05:38:00,
2013-01-11 21:43:00,46.0,40.8,30.14,NE,50,1.7,2.3,82,0.00,OVC,,0.00,0.0,WeatherDisplay:10.37,2013-01-12 05:43:00,
2013-01-11 21:48:00,46.0,40.8,30.14,NE,50,0.3,2.3,82,0.00,OVC,,0.00,0.0,WeatherDisplay:10.37,2013-01-12 05:48:00,
2013-01-11 21:53:00,46.1,41.2,30.14,NE,50,0.3,2.3,83,0.00,OVC,,0.00,0.0,WeatherDisplay:10.37,2013-01-12 05:53:00,
2013-01-11 21:58:00,46.1,40.9,30.14,North,358,0.1,0.0,82,0.00,OVC,,0.00,0.0,WeatherDisplay:10.37,2013-01-12 05:58:00,
2013-01-11 22:03:00,46.1,40.9,30.14,NE,50,1.2,2.3,82,0.00,OVC,,0.00,0.0,WeatherDisplay:10.37,2013-01-12 06:03:00,
2013-01-11 22:08:00,46.1,40.6,30.14,NE,50,1.4,3.0,81,0.00,OVC,,0.00,0.0,WeatherDisplay:10.37,2013-01-12 06:08:00,
2013-01-11 22:13:00,46.0,40.5,30.14,NE,50,2.2,3.5,81,0.00,OVC,,0.00,0.0,WeatherDisplay:10.37,2013-01-12 06:13:00,
2013-01-11 22:18:00,46.0,39.9,30.15,North,359,2.0,4.6,79,0.00,OVC,,0.00,0.0,WeatherDisplay:10.37,2013-01-12 06:18:00,
2013-01-11 22:23:00,45.9,39.8,30.14,NNE,19,2.3,4.6,79,0.00,OVC,,0.00,0.0,WeatherDisplay:10.37,2013-01-12 06:23:00,
2013-01-11 22:28:00,45.9,39.1,30.14,North,359,3.2,9.2,77,0.00,OVC,,0.00,0.0,WeatherDisplay:10.37,2013-01-12 06:28:00,
2013-01-11 22:33:00,45.9,39.1,30.14,NNW,348,1.8,3.5,77,0.00,OVC,,0.00,0.0,WeatherDisplay:10.37,2013-01-12 06:33:00,
2013-01-11 22:38:00,45.9,38.8,30.14,North,5,2.4,5.8,76,0.00,OVC,,0.00,0.0,WeatherDisplay:10.37,2013-01-12 06:38:00,
2013-01-11 22:43:00,45.9,38.8,30.15,NNE,26,2.0,3.5,76,0.00,OVC,,0.00,0.0,WeatherDisplay:10.37,2013-01-12 06:43:00,
2013-01-11 22:48:00,45.9,38.4,30.14,North,5,4.5,5.8,75,0.00,OVC,,0.00,0.0,WeatherDisplay:10.37,2013-01-12 06:48:00,
2013-01-11 22:53:00,45.9,38.4,30.15,NNW,347,2.8,3.5,75,0.00,OVC,,0.00,0.0,WeatherDisplay:10.37,2013-01-12 06:53:00,
2013-01-11 22:58:00,45.9,38.4,30.15,North,350,2.2,5.8,75,0.00,OVC,,0.00,0.0,WeatherDisplay:10.37,2013-01-12 06:58:00,
2013-01-11 23:03:00,45.9,38.4,30.15,NNW,339,2.2,3.5,75,0.00,OVC,,0.00,0.0,WeatherDisplay:10.37,2013-01-12 07:03:00,
2013-01-11 23:08:00,45.8,38.7,30.15,NNW,344,1.9,5.8,76,0.00,OVC,,0.00,0.0,WeatherDisplay:10.37,2013-01-12 07:08:00,
2013-01-11 23:13:00,45.8,38.3,30.15,North,350,1.1,2.3,75,0.00,OVC,,0.00,0.0,WeatherDisplay:10.37,2013-01-12 07:13:00,
2013-01-11 23:18:00,45.7,38.6,30.16,NE,36,2.6,9.2,76,0.00,OVC,,0.00,0.0,WeatherDisplay:10.37,2013-01-12 07:18:00,
2013-01-11 23:23:00,45.6,38.5,30.16,North,10,2.7,9.2,76,0.00,OVC,,0.00,0.0,WeatherDisplay:10.37,2013-01-12 07:23:00,
2013-01-11 23:28:00,45.6,38.8,30.16,North,358,5.6,5.8,77,0.00,OVC,,0.00,0.0,WeatherDisplay:10.37,2013-01-12 07:28:00,
2013-01-11 23:33:00,45.6,38.8,30.16,NE,42,0.6,3.5,77,0.00,OVC,,0.00,0.0,WeatherDisplay:10.37,2013-01-12 07:33:00,
2013-01-11 23:38:00,45.5,39.0,30.16,NE,43,2.0,4.6,78,0.00,OVC,,0.00,0.0,WeatherDisplay:10.37,2013-01-12 07:38:00,
2013-01-11 23:43:00,45.3,38.8,30.16,North,358,2.2,3.5,78,0.00,OVC,,0.00,0.0,WeatherDisplay:10.37,2013-01-12 07:43:00,
2013-01-11 23:48:00,45.2,39.1,30.16,North,358,1.9,4.6,79,0.00,OVC,,0.00,0.0,WeatherDisplay:10.37,2013-01-12 07:48:00,
2013-01-11 23:53:00,45.2,39.1,30.16,North,360,2.9,3.5,79,0.00,OVC,,0.00,0.0,WeatherDisplay:10.37,2013-01-12 07:53:00,
2013-01-11 23:58:00,45.2,39.4,30.16,NNE,21,1.8,3.5,80,0.00,OVC,,0.00,0.0,WeatherDisplay:10.37,2013-01-12 07:58:00,